Location: ????????
(55.3939°N, 37.4780°E)
Time: 21:21:58
(UTC+00:00)

Cosmos 1934 Rocket - Pass Details

Date: 14 April 2026
Orbit: 936 x 999 km, 83.0° (Epoch: 11 May)

Event Time Altitude Azimuth Distance (km) Brightness Sun altitude
Exits shadow 19:42:07 27° 196° (SSW) 1,795 5.0 -21.2°
Maximum altitude 19:45:47 82° 281° (WNW) 996 4.0 -21.4°
Drops below altitude 10° 19:52:03 10° 10° (N) 2,721 7.1 -21.8°
Sets 19:54:33 0° 12° (NNE) 3,663 7.8 -22.0°
